This is the latest recevied weather packets stored in our database for station/object IK0OZB-10. If no packets are shown the sender has not sent any weather packets the latest 10 day(s).
| Time | Temp. | Humidity | Pressure | Rain* | Wind** | Luminosity | Snow |
|---|---|---|---|---|---|---|---|
| 1777690808 | 11.67° C | 56% | 1023.3 hPa | - | - | - | - |
| 1777689908 | 11.67° C | 56% | 1023.3 hPa | - | - | - | - |
| 1777689007 | 11.67° C | 58% | 1023.5 hPa | - | - | - | - |
| 1777688107 | 12.22° C | 59% | 1023.5 hPa | - | - | - | - |
| 1777687207 | 12.22° C | 59% | 1023.6 hPa | - | - | - | - |
| 1777686307 | 12.22° C | 56% | 1023.6 hPa | - | - | - | - |
| 1777685407 | 12.78° C | 54% | 1023.5 hPa | - | - | - | - |
| 1777684507 | 12.78° C | 54% | 1023.5 hPa | - | - | - | - |
| 1777683607 | 12.78° C | 59% | 1023.5 hPa | - | - | - | - |
| 1777682706 | 13.33° C | 60% | 1023.6 hPa | - | - | - | - |
| 1777681806 | 13.33° C | 60% | 1023.7 hPa | - | - | - | - |
| 1777680906 | 13.33° C | 58% | 1023.8 hPa | - | - | - | - |
| 1777680006 | 13.33° C | 57% | 1023.8 hPa | - | - | - | - |
| 1777679106 | 13.89° C | 54% | 1023.8 hPa | - | - | - | - |
| 1777678206 | 13.89° C | 53% | 1023.9 hPa | - | - | - | - |
| 1777677306 | 14.44° C | 51% | 1023.9 hPa | - | - | - | - |
| 1777676406 | 14.44° C | 51% | 1024.1 hPa | - | - | - | - |
| 1777675505 | 14.44° C | 50% | 1024 hPa | - | - | - | - |
| 1777674606 | 14.44° C | 47% | 1023.9 hPa | - | - | - | - |
| 1777673705 | 15° C | 46% | 1023.8 hPa | - | - | - | - |
| 1777672805 | 15.56° C | 44% | 1023.6 hPa | - | - | - | - |
| 1777671905 | 16.11° C | 41% | 1023.5 hPa | - | - | - | - |
| 1777671005 | 16.67° C | 38% | 1023.4 hPa | - | - | - | - |
| 1777670105 | 16.67° C | 35% | 1023.4 hPa | - | - | - | - |
| 1777669204 | 16.67° C | 35% | 1023.2 hPa | - | - | - | - |
* Rain since midnight (hover to see other rain measurements)
** Current wind speed in m/s (hover to see current wind gust speed)